Content
SEND FEEDBACK

Daily
Averages
Monthly
Summary
United States of America

WRIGHTSVILLE BEACH, NORTH CAROLINA


Home > North America > United States > North Carolina
Elevation: 25 feet     Latitude: 34 16N     Longitude: 077 54W

WEATHER
 
SELECT A DAY
Number of Records: 208,995;   Date Range: 1/1/95 - 8/30/14
 
SHARE

PRINT THIS DATA

[ ← Previous Day ]
WEATHER ALMANAC - JANUARY 8, 2014
[ Next Day → ]
[ °C ]   °F
Weather ElementAverageHighLow
Temperature30.9 °F42.1 °F (1:53 pm)21 °F (7:53 am)
Dewpoint12.7 °F19.9 °F (7:53 pm) (7:00 pm)
Humidity51.3 %75 % (8:53 pm)20 % (11:53 am)
Barometer30.56 in30.64 in (9:53 am)30.53 in (1:53 am)
Wind Speed2.3 mph6.9 mph (8:53 pm)
Weather ElementAverage
Visibility10 mi
Wind DirectionNNE (33.5 °)

Weather ElementTotal
Precipitation---
Heating Degree Days33.5 (Base 65)
Averaged from 23 records on January 8, 2014
WEATHER CONDITIONS BREAKOUT
WIND DIRECTION BREAKOUT
WEATHER BY HOUR - JANUARY 8, 2014
[ °C ]   °F
Local TimeTemperatureDewpointHumidityBarometerVisibilityWind DirectionWind SpeedGust SpeedPrecipitationEventsConditions
1:53 AM25.0 °F9.0 °F51 %30.53 in10.0 miCalmClear
2:53 AM21.9 °F12.9 °F68 %30.54 in10.0 miCalmClear
3:53 AM23.0 °F12.9 °F65 %30.53 in10.0 miCalmClear
4:53 AM21.9 °F12.9 °F68 %30.55 in10.0 miCalmClear
5:53 AM21.9 °F14.0 °F72 %30.56 in10.0 miCalmClear
6:53 AM21.9 °F10.9 °F63 %30.58 in10.0 miCalmClear
7:53 AM21.0 °F12.9 °F71 %30.61 in10.0 miCalmClear
8:53 AM24.1 °F12.0 °F60 %30.63 in10.0 miCalmClear
9:53 AM32.0 °F12.9 °F45 %30.64 in10.0 miNE (50°)5.8 mphClear
10:53 AM35.1 °F3.0 °F26 %30.63 in10.0 miENE (70°)5.8 mphClear
11:53 AM37.9 °F0.0 °F20 %30.59 in10.0 miENE (70°)5.8 mphClear
12:53 PM41.0 °F3.0 °F21 %30.56 in10.0 miVariable3.5 mphClear
1:53 PM42.1 °F6.1 °F23 %30.55 in10.0 miENE (70°)3.5 mphClear
2:53 PM42.1 °F10.9 °F28 %30.56 in10.0 miSE (140°)4.6 mphClear
3:53 PM42.1 °F14.0 °F32 %30.55 in10.0 miEast (80°)4.6 mphClear
4:53 PM41.0 °F12.9 °F32 %30.55 in10.0 miEast (90°)4.6 mphClear
5:53 PM37.0 °F16.0 °F42 %30.55 in10.0 miSE (130°)3.5 mphClear
6:53 PM30.9 °F19.0 °F61 %30.56 in10.0 miCalmClear
7:53 PM28.9 °F19.9 °F69 %30.56 in10.0 miNE (40°)3.5 mphClear
8:53 PM27.0 °F19.9 °F75 %30.55 in10.0 miNNE (30°)6.9 mphClear
9:53 PM30.0 °F19.9 °F66 %30.54 in10.0 miCalmClear
10:53 PM30.9 °F19.0 °F61 %30.53 in10.0 miCalmClear
11:53 PM30.9 °F19.0 °F61 %30.53 in10.0 miCalmClear
Hourly data recorded from KILM, located miles away from Wrightsville Beach, North Carolina







STORIES FROM OUR PARTNERS